Temp
-15 -15 -15 -15 -15 -14 -15 -15 -15 -15 -15 -15 -15 -15 -15 -16 -16 -16 -16 -16 -15 -16 -15 -15 -16 -16 -16 -16 -16 -16 -17 -17 -17 -18 -18 -18 -18 -18 -19 -19 -19 -19 -19 -19 -19 -20 -20 -21 -21 -22 -22 -22 -22 -22
-15 -16 -16 -16 -15 -15 -15 -15 -15 -15 -15 -16 -15 -15 -16 -15 -15 -15 -15 -16 -16 -16 -16 -16 -17 -16 -16 -17 -17 -17 -17 -18 -19 -19 -19 -19 -19 -19 -19 -19 -19 -19 -19 -19 -20 -20 -21 -22 -22 -22 -22 -22 -22 -22
-16 -15 -15 -16 -16 -16 -16 -16 -16 -15 -16 -16 -16 -16 -16 -16 -16 -16 -16 -16 -16 -16 -17 -17 -17 -17 -17 -17 -18 -18 -18 -19 -18 -18 -19 -19 -19 -19 -19 -19 -20 -19 -19 -20 -20 -21 -22 -22 -22 -22 -22 -22 -22 -22
-18 -17 -18 -16 -16 -16 -17 -16 -15 -16 -16 -16 -16 -16 -16 -16 -17 -18 -18 -18 -19 -18 -19 -18 -18 -18 -18 -18 -19 -19 -19 -19 -19 -19 -19 -19 -20 -20 -19 -20 -20 -20 -20 -21 -21 -22 -22 -23 -23 -22 -23 -22 -23 -23
-19 -19 -19 -20 -19 -18 -18 -19 -18 -19 -18 -18 -18 -19 -18 -18 -19 -19 -20 -19 -19 -19 -20 -19 -19 -18 -18 -19 -19 -19 -19 -19 -19 -19 -19 -20 -20 -20 -20 -20 -21 -20 -21 -21 -22 -22 -23 -23 -23 -23 -23 -23 -23 -24
-19 -19 -19 -19 -19 -19 -20 -19 -19 -19 -19 -19 -18 -18 -18 -18 -18 -18 -18 -18 -18 -19 -19 -19 -19 -19 -19 -19 -19 -20 -19 -19 -20 -20 -21 -21 -21 -21 -21 -21 -21 -21 -22 -22 -22 -23 -24 -23 -23 -23 -23 -23 -24 -24
-19 -19 -20 -19 -19 -19 -18 -18 -18 -18 -18 -18 -17 -17 -18 -19 -19 -19 -19 -19 -19 -19 -20 -20 -19 -19 -20 -20 -20 -20 -20 -20 -20 -21 -22 -22 -22 -22 -22 -22 -22 -22 -22 -23 -23 -24 -24 -23 -23 -23 -23 -24 -24 -24
-19 -19 -19 -20 -19 -19 -18 -18 -18 -18 -18 -17 -18 -18 -19 -19 -19 -19 -19 -19 -20 -20 -20 -20 -20 -20 -20 -20 -20 -20 -21 -21 -21 -22 -22 -22 -22 -22 -22 -23 -23 -23 -23 -23 -24 -24 -24 -24 -24 -24 -24 -24 -24 -25
-19 -19 -19 -19 -19 -19 -19 -19 -19 -18 -18 -18 -19 -20 -20 -19 -19 -20 -20 -20 -20 -20 -20 -20 -21 -21 -21 -21 -21 -21 -21 -22 -22 -22 -23 -23 -23 -23 -23 -23 -23 -24 -24 -24 -24 -24 -24 -24 -24 -24 -24 -25 -25 -26
-21 -21 -20 -20 -20 -20 -19 -19 -19 -19 -19 -20 -20 -20 -20 -20 -21 -21 -21 -21 -21 -21 -21 -21 -22 -22 -22 -22 -22 -22 -22 -23 -23 -23 -23 -23 -23 -24 -23 -24 -24 -24 -24 -24 -24 -24 -24 -24 -25 -25 -25 -26 -27 -27
-22 -22 -21 -21 -21 -21 -20 -20 -20 -21 -21 -21 -21 -21 -21 -21 -21 -22 -22 -21 -21 -22 -22 -22 -23 -23 -23 -23 -23 -24 -24 -24 -24 -23 -24 -23 -24 -24 -24 -24 -25 -25 -24 -24 -24 -24 -25 -25 -25 -26 -26 -27 -28 -28
-23 -22 -22 -22 -22 -22 -21 -21 -21 -21 -21 -22 -22 -23 -22 -22 -22 -22 -22 -22 -23 -23 -23 -23 -23 -24 -24 -24 -24 -25 -25 -24 -24 -24 -24 -24 -24 -24 -25 -25 -25 -25 -25 -25 -25 -25 -25 -25 -25 -26 -26 -27 -28 -28
-24 -24 -23 -23 -23 -22 -22 -22 -22 -22 -22 -23 -24 -23 -23 -23 -23 -23 -23 -23 -24 -24 -24 -24 -25 -25 -25 -25 -25 -25 -25 -24 -24 -24 -24 -25 -25 -25 -25 -25 -25 -25 -25 -25 -25 -25 -25 -25 -26 -27 -28 -28 -28 -28
-25 -24 -24 -24 -23 -24 -23 -23 -23 -23 -24 -24 -24 -24 -24 -24 -24 -24 -24 -24 -25 -25 -25 -25 -25 -25 -25 -25 -25 -25 -25 -25 -24 -25 -25 -25 -25 -25 -25 -25 -25 -25 -25 -25 -26 -26 -26 -26 -27 -28 -28 -28 -28 -28
-25 -25 -25 -25 -25 -24 -24 -24 -24 -24 -25 -25 -25 -24 -24 -25 -25 -25 -25 -25 -25 -25 -25 -25 -25 -25 -25 -25 -25 -25 -25 -25 -25 -26 -25 -25 -25 -25 -25 -25 -25 -26 -26 -26 -26 -26 -27 -27 -28 -29 -29 -29 -28 -28
-26 -26 -26 -26 -26 -25 -25 -25 -25 -25 -25 -25 -26 -26 -25 -25 -25 -25 -25 -25 -25 -25 -25 -25 -25 -25 -25 -26 -26 -26 -26 -26 -26 -26 -26 -25 -25 -25 -26 -26 -26 -26 -26 -26 -26 -27 -28 -28 -29 -29 -30 -29 -29 -29
-26 -26 -26 -26 -26 -26 -26 -26 -26 -26 -26 -26 -25 -26 -26 -26 -26 -25 -25 -25 -25 -25 -25 -25 -26 -26 -26 -26 -26 -26 -26 -26 -26 -26 -26 -26 -26 -26 -26 -26 -26 -26 -26 -27 -27 -28 -29 -29 -30 -30 -30 -30 -29 -29
-26 -26 -26 -26 -26 -26 -26 -26 -26 -26 -26 -26 -26 -26 -26 -26 -26 -26 -26 -26 -26 -26 -26 -26 -26 -26 -26 -26 -26 -26 -26 -26 -26 -26 -26 -26 -26 -26 -26 -26 -26 -27 -27 -28 -29 -30 -30 -30 -30 -30 -30 -30 -29 -29
-26 -26 -26 -26 -26 -26 -26 -26 -26 -25 -25 -26 -26 -26 -26 -26 -26 -26 -26 -26 -26 -26 -27 -26 -26 -26 -26 -26 -26 -26 -26 -26 -26 -26 -26 -27 -27 -27 -27 -28 -28 -28 -29 -30 -30 -31 -31 -31 -30 -30 -30 -30 -29 -29
-27 -26 -26 -26 -26 -26 -26 -26 -26 -26 -26 -26 -26 -26 -26 -26 -26 -26 -27 -27 -27 -27 -27 -27 -26 -26 -26 -26 -26 -26 -26 -26 -27 -27 -27 -28 -28 -28 -29 -29 -29 -30 -30 -31 -31 -32 -31 -31 -31 -30 -30 -30 -29 -29
-27 -27 -27 -27 -27 -27 -26 -26 -26 -26 -27 -27 -27 -27 -27 -27 -27 -27 -27 -27 -27 -27 -27 -26 -26 -26 -26 -26 -26 -27 -27 -27 -28 -28 -29 -29 -29 -30 -30 -31 -31 -32 -32 -32 -32 -32 -32 -31 -31 -30 -30 -30 -29 -30
-27 -27 -27 -27 -27 -27 -27 -27 -27 -27 -27 -27 -27 -27 -27 -27 -27 -27 -27 -27 -27 -27 -27 -27 -27 -27 -27 -27 -27 -28 -28 -29 -29 -30 -30 -31 -32 -32 -32 -32 -33 -33 -33 -33 -33 -33 -32 -32 -31 -31 -30 -30 -29 -30
-28 -28 -28 -27 -27 -27 -27 -27 -27 -27 -27 -27 -27 -27 -27 -27 -27 -27 -27 -27 -27 -27 -27 -27 -27 -27 -27 -28 -28 -29 -30 -31 -31 -32 -32 -33 -33 -33 -33 -33 -33 -33 -33 -33 -33 -33 -32 -32 -31 -31 -31 -30 -30 -30
-28 -28 -28 -28 -28 -28 -28 -28 -28 -28 -28 -28 -28 -28 -28 -27 -27 -27 -27 -27 -27 -27 -27 -28 -28 -28 -29 -29 -30 -31 -32 -32 -33 -33 -34 -34 -34 -34 -34 -34 -34 -34 -33 -33 -33 -33 -33 -32 -32 -31 -31 -30 -30 -30
-28 -28 -28 -28 -28 -28 -28 -28 -28 -28 -28 -28 -28 -28 -28 -28 -28 -28 -28 -28 -28 -28 -28 -29 -29 -30 -31 -32 -32 -33 -33 -33 -34 -34 -34 -34 -34 -34 -34 -34 -34 -34 -34 -34 -33 -33 -33 -32 -32 -32 -31 -31 -30 -30
-29 -29 -29 -29 -29 -29 -29 -29 -29 -29 -29 -28 -28 -28 -28 -28 -28 -28 -29 -29 -29 -30 -30 -31 -32 -32 -32 -32 -33 -33 -34 -34 -34 -34 -34 -35 -35 -35 -35 -35 -34 -34 -34 -34 -34 -33 -33 -33 -32 -32 -31 -31 -31 -30
-29 -29 -29 -29 -29 -29 -29 -29 -29 -29 -29 -29 -29 -29 -29 -29 -29 -29 -30 -30 -31 -32 -33 -33 -33 -33 -33 -34 -34 -34 -34 -34 -34 -35 -35 -35 -35 -35 -35 -35 -35 -34 -34 -34 -34 -34 -33 -33 -33 -32 -32 -32 -31 -31
-30 -30 -30 -30 -30 -30 -30 -29 -29 -29 -29 -29 -29 -30 -30 -30 -30 -31 -32 -33 -34 -34 -34 -34 -34 -34 -34 -34 -35 -35 -35 -35 -35 -35 -35 -35 -35 -35 -35 -35 -35 -35 -35 -34 -34 -34 -34 -33 -33 -33 -32 -32 -32 -31
-31 -31 -30 -30 -30 -30 -30 -30 -30 -30 -31 -31 -31 -31 -31 -31 -32 -33 -34 -34 -34 -34 -34 -34 -34 -34 -34 -34 -34 -35 -35 -36 -36 -35 -35 -36 -36 -36 -36 -35 -35 -35 -35 -35 -35 -34 -34 -34 -34 -33 -33 -33 -32 -32
-31 -31 -31 -31 -31 -31 -31 -31 -32 -32 -32 -32 -32 -32 -32 -33 -34 -34 -34 -35 -34 -34 -34 -34 -34 -34 -34 -34 -34 -35 -35 -36 -36 -36 -36 -36 -36 -36 -36 -36 -36 -36 -35 -35 -35 -35 -35 -34 -34 -34 -34 -33 -33 -33
-32 -32 -32 -32 -32 -32 -32 -32 -32 -33 -33 -33 -33 -33 -34 -34 -34 -35 -35 -35 -35 -35 -35 -35 -35 -35 -35 -35 -35 -35 -35 -35 -36 -36 -36 -36 -36 -36 -36 -36 -36 -36 -36 -36 -36 -35 -35 -35 -35 -35 -35 -34 -34 -34
-32 -32 -33 -33 -33 -33 -33 -34 -34 -34 -34 -34 -34 -34 -34 -34 -35 -35 -35 -35 -35 -35 -35 -35 -35 -35 -35 -35 -35 -35 -35 -35 -36 -36 -36 -36 -36 -36 -36 -37 -37 -37 -37 -36 -36 -36 -36 -36 -35 -35 -35 -35 -35 -35
-33 -34 -34 -34 -34 -34 -34 -34 -35 -35 -35 -35 -35 -35 -35 -35 -35 -35 -35 -35 -35 -35 -35 -35 -35 -35 -35 -35 -35 -35 -36 -36 -36 -36 -36 -36 -36 -37 -37 -37 -37 -37 -37 -37 -37 -37 -36 -36 -36 -36 -36 -35 -35 -35
Height
5667 5673 5678 5683 5688 5693 5697 5702 5705 5708 5711 5713 5714 5717 5719 5720 5720 5719 5719 5718 5716 5712 5712 5711 5709 5706 5703 5699 5695 5693 5688 5685 5678 5674 5669 5666 5662 5657 5654 5649 5643 5639 5633 5630 5624 5617 5613 5608 5604 5601 5596 5590 5585 5579
5652 5659 5665 5670 5673 5679 5684 5687 5693 5694 5698 5698 5702 5704 5706 5708 5707 5708 5707 5706 5702 5701 5701 5698 5697 5693 5690 5687 5682 5679 5674 5671 5664 5661 5657 5654 5653 5648 5643 5637 5631 5626 5622 5620 5616 5608 5601 5597 5593 5590 5587 5580 5573 5568
5635 5643 5650 5656 5661 5665 5670 5673 5677 5682 5682 5685 5689 5690 5691 5692 5692 5691 5690 5688 5685 5687 5687 5687 5683 5678 5674 5671 5668 5665 5663 5660 5657 5652 5646 5642 5639 5635 5630 5625 5620 5615 5609 5607 5602 5599 5593 5588 5585 5581 5576 5569 5562 5555
5619 5625 5631 5639 5644 5649 5655 5658 5662 5664 5667 5670 5673 5675 5676 5679 5677 5674 5673 5673 5672 5670 5670 5673 5669 5666 5663 5659 5656 5654 5650 5646 5642 5638 5635 5630 5625 5621 5617 5613 5609 5602 5599 5594 5591 5587 5583 5579 5575 5571 5563 5557 5550 5542
5607 5612 5618 5624 5630 5634 5639 5643 5646 5650 5653 5656 5659 5660 5661 5664 5661 5659 5661 5662 5660 5659 5655 5656 5656 5654 5648 5646 5642 5639 5636 5632 5629 5625 5622 5617 5613 5608 5605 5601 5598 5591 5588 5584 5580 5577 5573 5569 5565 5560 5553 5547 5538 5531
5591 5599 5605 5611 5616 5620 5625 5631 5635 5639 5641 5644 5646 5648 5650 5648 5649 5650 5649 5649 5645 5640 5639 5640 5643 5640 5635 5631 5629 5624 5621 5619 5617 5614 5609 5605 5601 5597 5593 5590 5586 5581 5576 5573 5570 5567 5565 5560 5554 5549 5544 5536 5528 5520
5576 5584 5591 5597 5602 5607 5611 5616 5620 5624 5627 5630 5632 5633 5630 5631 5634 5634 5634 5632 5631 5626 5624 5622 5624 5627 5621 5617 5613 5611 5609 5606 5604 5602 5596 5592 5588 5585 5581 5579 5573 5570 5567 5564 5560 5558 5554 5550 5544 5538 5533 5526 5517 5509
5561 5570 5578 5582 5588 5593 5597 5601 5605 5610 5614 5619 5621 5617 5618 5618 5618 5618 5616 5616 5615 5614 5610 5606 5609 5608 5607 5602 5600 5598 5596 5593 5590 5587 5585 5579 5576 5572 5570 5566 5562 5559 5557 5554 5552 5549 5544 5539 5534 5528 5521 5516 5508 5498
5545 5553 5559 5565 5572 5578 5583 5587 5592 5595 5602 5605 5603 5600 5600 5603 5603 5602 5602 5600 5600 5601 5595 5596 5594 5594 5593 5590 5586 5584 5582 5579 5576 5575 5572 5568 5565 5560 5557 5554 5551 5549 5547 5545 5542 5539 5534 5529 5523 5517 5511 5504 5497 5488
5529 5536 5543 5550 5556 5561 5565 5570 5577 5582 5585 5583 5582 5584 5586 5590 5588 5588 5586 5586 5586 5586 5585 5583 5581 5578 5579 5576 5572 5571 5568 5565 5563 5563 5559 5557 5554 5549 5547 5544 5542 5540 5538 5536 5533 5529 5523 5517 5512 5505 5500 5493 5487 5481
5515 5520 5529 5534 5539 5544 5549 5557 5563 5565 5563 5565 5568 5571 5573 5574 5573 5571 5571 5574 5574 5573 5573 5572 5568 5565 5563 5560 5559 5558 5554 5552 5551 5552 5548 5546 5544 5539 5537 5535 5534 5533 5530 5527 5523 5519 5515 5509 5504 5497 5490 5484 5479 5474
5499 5507 5514 5522 5525 5529 5536 5543 5543 5547 5551 5553 5556 5556 5558 5558 5557 5557 5558 5559 5561 5561 5561 5557 5557 5553 5550 5548 5547 5546 5544 5543 5541 5540 5537 5536 5532 5531 5530 5528 5527 5524 5521 5518 5514 5510 5505 5501 5495 5489 5483 5477 5472 5468
5488 5493 5503 5510 5513 5517 5523 5527 5531 5535 5538 5540 5542 5543 5542 5544 5545 5545 5546 5549 5549 5546 5547 5545 5544 5543 5539 5538 5537 5536 5534 5534 5531 5529 5528 5527 5525 5524 5523 5521 5519 5516 5512 5509 5505 5500 5496 5491 5486 5480 5474 5470 5466 5462
5477 5482 5491 5496 5501 5507 5512 5513 5518 5522 5526 5527 5529 5530 5531 5534 5537 5538 5537 5536 5536 5535 5536 5536 5534 5533 5530 5528 5527 5526 5525 5523 5522 5522 5520 5519 5518 5516 5515 5513 5510 5506 5503 5499 5495 5491 5486 5481 5477 5472 5468 5464 5460 5457
5469 5475 5482 5488 5491 5496 5500 5503 5509 5509 5514 5517 5518 5520 5525 5528 5527 5528 5528 5528 5528 5527 5527 5526 5524 5523 5520 5519 5518 5517 5516 5515 5515 5514 5513 5511 5510 5508 5506 5503 5499 5496 5493 5489 5485 5481 5476 5472 5469 5465 5462 5459 5456 5452
5465 5471 5477 5481 5486 5491 5495 5499 5504 5508 5510 5511 5512 5515 5517 5519 5520 5520 5520 5520 5519 5518 5517 5516 5514 5513 5512 5511 5511 5509 5510 5509 5508 5507 5505 5504 5502 5500 5496 5493 5490 5487 5484 5480 5475 5471 5467 5464 5461 5460 5457 5454 5451 5448
5462 5468 5472 5477 5483 5486 5490 5494 5498 5500 5503 5504 5507 5509 5510 5511 5512 5512 5512 5511 5509 5509 5508 5507 5507 5506 5505 5505 5505 5504 5504 5502 5501 5499 5498 5495 5493 5490 5487 5483 5480 5477 5474 5469 5465 5462 5458 5456 5455 5454 5453 5450 5448 5445
5458 5463 5467 5472 5477 5481 5485 5488 5491 5493 5496 5498 5500 5501 5502 5503 5503 5503 5502 5502 5502 5502 5502 5501 5501 5501 5501 5500 5499 5498 5496 5495 5493 5491 5489 5485 5482 5479 5476 5473 5470 5466 5463 5459 5455 5452 5451 5450 5449 5449 5448 5446 5444 5441
5454 5458 5463 5467 5472 5475 5479 5481 5485 5488 5490 5491 5492 5494 5495 5495 5495 5495 5496 5496 5497 5497 5496 5496 5496 5496 5494 5493 5492 5490 5488 5486 5484 5482 5478 5474 5471 5468 5464 5461 5457 5454 5451 5449 5446 5444 5444 5444 5444 5444 5443 5442 5440 5438
5451 5454 5458 5462 5466 5469 5473 5476 5479 5480 5482 5484 5485 5487 5488 5488 5489 5490 5491 5492 5492 5492 5492 5491 5490 5489 5488 5486 5484 5482 5479 5476 5473 5469 5465 5462 5458 5455 5452 5449 5445 5443 5440 5439 5438 5438 5438 5438 5439 5439 5439 5438 5437 5435
5448 5451 5454 5457 5460 5464 5466 5468 5471 5473 5475 5478 5479 5481 5483 5485 5486 5486 5487 5487 5487 5487 5486 5485 5483 5482 5480 5477 5474 5471 5467 5464 5460 5456 5453 5449 5446 5443 5440 5437 5435 5433 5433 5432 5432 5432 5432 5433 5434 5435 5435 5434 5433 5433
5446 5449 5452 5454 5457 5460 5463 5465 5468 5471 5474 5475 5477 5478 5480 5481 5482 5483 5483 5483 5481 5480 5479 5477 5475 5473 5470 5467 5463 5459 5455 5451 5447 5444 5441 5438 5435 5433 5430 5429 5428 5428 5428 5428 5427 5427 5428 5429 5430 5431 5431 5431 5431 5430
5447 5449 5452 5454 5457 5460 5463 5465 5468 5469 5471 5473 5475 5476 5477 5478 5478 5478 5477 5475 5474 5472 5471 5468 5465 5462 5458 5454 5450 5446 5442 5439 5436 5434 5431 5429 5428 5426 5425 5424 5423 5423 5423 5423 5423 5424 5424 5425 5426 5427 5428 5428 5428 5428
5448 5450 5452 5455 5457 5460 5462 5464 5466 5468 5469 5471 5472 5473 5473 5473 5472 5471 5470 5468 5466 5463 5460 5457 5453 5449 5445 5441 5437 5434 5432 5429 5428 5426 5425 5424 5423 5421 5420 5420 5419 5419 5420 5420 5420 5420 5421 5422 5423 5424 5424 5425 5425 5426
5449 5451 5454 5455 5457 5460 5461 5463 5464 5466 5467 5468 5468 5468 5467 5467 5466 5464 5461 5459 5455 5452 5448 5444 5440 5436 5433 5429 5427 5425 5424 5423 5422 5421 5420 5419 5418 5417 5417 5416 5416 5416 5416 5416 5417 5417 5418 5418 5419 5420 5421 5421 5422 5423
5449 5451 5454 5454 5456 5458 5459 5460 5461 5462 5463 5463 5462 5462 5460 5459 5456 5454 5451 5447 5444 5440 5436 5433 5430 5427 5424 5421 5418 5417 5417 5417 5416 5416 5415 5415 5414 5414 5414 5413 5413 5414 5413 5414 5414 5414 5415 5415 5416 5416 5417 5418 5418 5419
5448 5449 5451 5452 5454 5455 5456 5457 5457 5457 5456 5455 5454 5453 5451 5449 5446 5444 5440 5437 5434 5431 5429 5427 5424 5421 5417 5414 5411 5410 5409 5410 5410 5410 5410 5410 5411 5411 5411 5411 5411 5411 5411 5411 5411 5411 5412 5412 5412 5413 5413 5414 5415 5415
5445 5447 5449 5449 5450 5450 5451 5451 5450 5449 5449 5447 5447 5444 5442 5440 5438 5434 5431 5429 5427 5426 5424 5423 5420 5418 5414 5410 5407 5405 5404 5404 5405 5405 5406 5406 5407 5407 5408 5408 5408 5408 5408 5408 5408 5408 5408 5409 5409 5409 5410 5410 5411 5411
5443 5443 5444 5444 5445 5445 5444 5444 5443 5442 5441 5439 5437 5434 5432 5429 5427 5424 5423 5422 5422 5422 5421 5419 5417 5414 5411 5408 5405 5402 5401 5400 5400 5401 5401 5402 5403 5404 5404 5404 5405 5405 5405 5405 5405 5405 5405 5405 5405 5405 5406 5406 5406 5407
5438 5438 5439 5438 5438 5438 5438 5437 5435 5434 5432 5430 5427 5425 5422 5420 5418 5417 5417 5418 5418 5418 5417 5415 5413 5411 5408 5405 5403 5400 5398 5397 5397 5397 5397 5398 5398 5399 5400 5400 5400 5400 5400 5401 5401 5401 5401 5401 5401 5401 5401 5402 5402 5402
5432 5433 5433 5432 5432 5431 5430 5429 5427 5425 5423 5421 5418 5416 5414 5412 5412 5411 5412 5413 5413 5413 5413 5412 5410 5408 5405 5402 5400 5398 5397 5395 5394 5393 5393 5393 5393 5393 5394 5394 5395 5395 5395 5396 5396 5396 5396 5396 5396 5396 5396 5397 5397 5397
5427 5427 5427 5426 5425 5424 5422 5421 5419 5417 5414 5412 5410 5408 5407 5406 5406 5406 5406 5408 5408 5409 5409 5408 5406 5405 5402 5400 5398 5396 5394 5392 5391 5390 5389 5388 5388 5387 5388 5388 5388 5389 5389 5389 5390 5390 5390 5390 5390 5391 5391 5391 5391 5391
5422 5421 5420 5419 5418 5416 5415 5413 5411 5409 5407 5404 5403 5402 5401 5400 5400 5401 5401 5402 5403 5404 5404 5403 5402 5401 5400 5398 5396 5394 5391 5390 5388 5386 5385 5384 5383 5382 5381 5381 5381 5381 5381 5382 5382 5382 5383 5383 5383 5383 5383 5383 5383 5383
Wind_Speed
69 70 72 70 69 67 61 57 58 59 58 57 57 57 51 45 50 48 48 51 45 49 46 47 51 49 49 53 55 56 58 59 60 51 38 33 28 32 44 46 37 41 47 40 49 50 45 41 37 38 39 41 43 46
69 69 69 66 64 64 64 61 60 63 62 57 60 60 52 53 49 50 49 48 44 45 51 46 48 54 58 58 59 62 62 60 62 60 59 50 45 49 50 44 39 49 44 44 50 49 41 37 36 37 39 43 46 48
69 70 64 56 65 64 61 59 61 64 61 57 58 57 55 55 48 46 51 51 50 51 54 55 57 59 60 60 62 64 62 60 62 63 57 53 48 49 45 44 44 53 45 42 47 44 39 35 36 38 41 45 48 51
59 57 54 60 54 51 49 49 64 49 56 53 58 55 52 53 55 51 52 53 55 57 57 54 56 59 58 60 64 64 63 61 57 55 53 51 45 43 43 43 47 48 41 41 43 42 37 37 38 40 44 47 50 53
64 62 58 56 54 51 50 50 53 53 51 49 53 56 55 52 54 56 55 56 59 58 60 61 61 62 62 62 61 60 58 55 54 52 50 46 44 44 43 44 45 47 41 42 41 38 35 38 40 42 46 49 51 51
70 69 65 63 59 58 58 59 59 59 58 57 56 57 56 56 55 55 56 58 60 62 63 64 64 63 62 61 60 56 56 57 53 51 47 44 44 43 41 44 44 44 44 43 40 34 35 38 42 45 48 51 51 51
73 70 69 68 67 65 63 61 61 62 62 61 60 58 56 56 56 58 59 60 61 62 62 62 63 61 59 58 56 55 55 53 53 49 46 47 45 42 43 44 48 47 43 40 34 33 36 39 44 47 49 49 49 52
77 75 75 74 71 67 67 66 63 63 63 63 60 59 58 57 58 60 61 62 61 61 61 62 61 59 57 55 54 53 52 50 49 49 48 46 46 45 43 43 42 40 38 34 31 33 38 42 45 48 48 47 50 51
76 73 72 71 70 69 70 69 68 66 67 67 62 60 61 64 63 62 60 58 58 61 62 58 57 55 52 51 51 50 49 49 49 46 46 44 40 38 41 41 38 36 32 30 32 35 40 44 46 45 46 48 50 43
65 66 67 66 66 66 66 65 64 63 60 58 60 62 63 61 58 55 56 57 59 57 55 54 53 52 51 50 49 48 48 47 47 42 42 39 35 39 38 35 33 30 29 30 34 39 43 45 43 46 47 46 39 35
59 60 61 60 59 60 61 61 57 55 56 58 59 58 55 53 55 56 57 58 58 56 54 50 47 47 45 45 44 42 42 43 43 40 40 38 36 34 32 31 29 28 29 32 37 41 41 40 42 44 44 38 33 31
53 54 54 55 55 54 54 51 53 53 53 53 52 50 52 53 55 56 57 55 50 46 43 42 42 40 38 39 38 37 38 38 37 35 34 33 30 29 29 28 28 29 32 36 39 40 40 41 43 45 41 32 29 25
45 47 47 45 47 47 47 47 48 47 48 47 46 47 49 49 49 50 46 42 39 38 37 36 34 35 34 34 34 34 35 34 34 33 30 25 25 25 26 27 29 32 35 38 39 40 41 42 42 40 32 29 25 22
41 43 42 43 44 44 44 44 43 42 40 41 40 40 40 41 40 35 33 32 30 29 27 26 27 29 31 32 33 33 33 33 30 24 23 23 24 25 27 30 32 35 37 38 39 41 43 43 39 32 25 25 21 21
36 35 34 32 33 34 35 33 31 29 27 28 30 33 33 30 25 23 21 21 23 26 30 31 32 33 34 33 30 27 24 23 21 22 23 24 26 28 30 33 35 36 37 40 41 43 43 39 32 22 21 20 18 16
24 23 23 22 18 18 24 27 32 36 38 32 27 24 21 21 21 23 26 29 30 32 35 35 34 31 28 24 20 20 21 21 23 24 25 27 29 31 33 34 36 38 40 42 43 42 38 32 24 17 17 17 15 15
25 25 23 25 22 28 29 28 28 27 29 26 24 24 26 28 30 31 32 33 35 33 28 25 21 19 18 17 19 21 22 23 24 26 28 30 31 33 35 37 40 42 44 44 43 37 30 25 19 16 14 14 11 12
25 28 26 28 26 27 29 28 28 28 28 28 28 30 31 30 33 34 33 28 24 21 18 16 15 16 18 18 20 22 24 25 27 29 31 34 36 39 41 43 45 45 43 41 36 29 23 19 17 16 14 15 13 12
27 28 28 32 36 34 32 29 29 30 31 31 32 33 33 33 30 25 21 18 15 13 14 15 16 16 17 19 22 25 27 30 33 35 38 40 42 44 45 45 43 41 37 32 27 21 19 17 17 15 13 15 16 13
24 26 27 29 31 31 31 32 32 32 32 30 28 27 23 19 16 14 12 12 14 13 12 14 17 20 23 25 28 31 35 37 40 41 43 44 45 44 43 40 37 33 28 23 19 18 17 17 16 14 13 14 14 14
19 19 19 19 20 21 21 21 22 22 19 16 14 13 12 11 11 11 11 10 12 15 17 19 22 25 29 32 35 38 40 42 42 43 43 42 41 38 34 30 26 22 18 15 17 17 16 16 15 13 12 12 12 12
10 11 12 12 13 13 14 15 14 15 14 12 10 10 10 10 9 10 11 12 15 18 22 26 30 33 35 37 40 41 42 42 41 40 37 34 30 26 23 20 16 14 13 14 13 13 14 14 13 13 12 10 11 9
10 11 12 13 14 14 15 16 14 12 11 10 9 8 8 9 10 12 15 18 22 25 28 31 34 37 39 41 42 41 39 37 33 30 26 23 21 19 16 14 14 13 12 11 12 12 13 12 11 12 12 9 10 9
9 11 12 14 15 14 14 11 10 9 8 7 7 8 9 12 14 17 20 23 27 29 32 35 37 38 39 39 36 34 30 27 23 20 19 18 16 15 13 12 11 11 12 12 11 11 11 11 11 11 11 10 11 11
9 11 13 14 14 11 10 9 7 6 6 7 9 12 14 17 20 24 27 29 32 34 36 36 36 35 33 31 28 26 23 20 18 17 16 14 13 11 10 9 9 10 11 10 10 10 10 10 10 11 12 10 10 11
11 12 13 13 11 9 9 8 7 7 9 12 14 17 20 24 28 30 32 34 34 34 32 29 27 26 25 25 23 22 20 18 17 15 13 12 11 9 9 8 9 10 10 9 9 9 9 10 10 11 11 11 10 10
12 13 13 12 11 9 9 9 10 12 15 18 20 23 27 31 33 33 33 31 27 22 18 17 18 19 20 19 19 18 18 17 15 14 12 12 11 9 8 8 8 9 9 9 9 9 9 9 10 10 10 11 11 10
9 10 10 11 10 10 11 13 15 18 20 24 27 30 33 34 33 31 27 21 15 14 15 15 15 16 17 17 15 14 13 14 15 14 13 13 12 10 9 9 9 9 9 9 9 9 10 10 11 11 11 11 11 12
9 9 10 10 12 14 16 18 21 25 28 31 34 35 35 35 31 25 18 13 11 11 11 12 13 14 15 16 15 13 11 11 12 13 14 14 14 13 12 11 10 11 11 11 11 11 11 11 11 11 12 12 12 13
12 13 15 16 18 20 23 26 29 32 34 36 38 38 33 27 22 17 13 12 10 6 6 10 13 14 14 14 14 13 12 11 11 12 13 15 16 16 15 14 13 12 12 12 12 13 13 13 13 13 13 13 13 14
17 19 20 22 24 27 29 32 35 36 37 37 34 28 22 19 16 14 14 13 10 7 6 11 13 14 14 14 14 13 12 11 11 11 12 14 16 18 18 17 16 16 15 15 15 15 15 15 15 15 15 15 15 16
22 23 25 26 29 31 34 35 36 36 32 27 23 20 18 16 15 14 15 14 13 10 6 8 12 13 14 14 14 14 13 13 12 11 12 13 15 16 19 20 21 20 19 19 18 18 18 18 17 18 18 19 19 20
25 27 30 33 34 34 35 35 31 25 23 21 19 17 16 15 15 14 15 15 14 12 9 7 10 13 15 16 16 16 15 15 14 14 14 14 14 15 16 18 19 20 22 23 23 23 23 23 22 22 22 22 22 23
Wind_Direction
234 238 244 247 250 253 252 255 256 261 263 264 265 267 270 264 267 267 273 265 266 267 271 277 277 275 274 285 288 291 295 299 298 303 308 290 296 302 309 309 308 298 299 303 296 295 298 300 299 303 305 308 308 309
231 232 236 242 246 246 249 251 252 256 257 259 259 260 253 253 253 257 258 264 261 267 275 272 278 280 279 283 286 289 297 303 309 312 313 310 300 303 308 311 304 296 295 294 298 299 299 299 301 303 307 306 308 310
233 231 228 239 236 236 244 245 246 248 247 246 246 250 244 248 251 260 258 260 263 263 270 277 276 283 284 290 294 299 300 301 300 300 303 307 297 302 298 298 296 290 285 293 301 297 296 299 301 304 306 310 310 310
243 242 244 242 241 240 244 249 239 252 250 253 247 255 265 266 266 281 285 283 288 288 290 290 288 291 291 289 291 294 295 297 297 299 301 300 299 299 295 292 294 293 291 302 302 295 295 299 301 305 309 310 311 312
243 245 247 252 255 254 255 255 258 267 268 269 273 278 281 282 279 281 284 287 284 282 282 283 285 287 288 289 291 293 295 297 299 299 298 297 297 295 293 293 296 294 300 304 300 293 295 299 304 308 309 311 312 312
239 245 245 248 250 251 255 258 260 262 264 266 267 269 272 270 272 272 275 275 275 276 278 280 283 284 287 290 291 295 296 296 295 295 294 294 295 295 293 293 292 296 305 301 294 292 298 302 306 308 310 312 312 312
240 241 245 248 251 253 255 258 261 264 268 269 271 274 272 273 275 274 274 274 274 275 278 281 283 285 287 289 291 292 292 291 292 291 291 295 297 294 289 292 295 296 295 291 289 295 300 304 307 310 312 312 312 314
238 239 241 245 249 251 254 255 257 259 261 265 269 270 270 270 271 272 273 274 276 279 280 282 284 287 288 288 289 289 289 289 289 289 293 294 296 290 291 293 294 294 290 287 291 296 302 305 308 312 312 312 314 316
239 240 242 244 247 248 251 254 257 259 263 265 264 264 265 268 269 269 272 275 276 277 278 281 284 285 288 287 287 287 287 287 289 291 293 293 293 292 291 293 292 288 286 290 295 300 303 307 312 312 312 314 316 317
236 239 241 243 246 248 249 251 254 257 259 258 259 262 265 267 268 270 271 271 271 274 278 280 282 284 285 285 285 285 285 286 288 290 291 292 293 292 291 289 285 285 288 296 302 305 308 312 313 313 314 316 316 312
234 235 238 240 242 246 249 252 253 253 254 257 260 262 264 265 265 266 267 270 273 275 278 283 283 282 280 281 282 282 285 285 286 289 289 291 292 287 285 283 286 288 295 301 304 306 309 310 310 313 316 317 313 311
229 232 235 239 241 243 246 246 247 249 251 253 256 257 259 261 263 265 269 273 277 282 283 279 278 278 278 278 281 283 283 284 287 289 288 290 283 282 283 285 287 295 300 303 305 306 307 308 311 315 316 314 311 310
227 230 232 233 237 239 239 241 244 247 250 253 254 256 259 260 264 268 274 278 275 275 275 277 279 281 283 285 283 282 283 284 285 288 289 284 282 281 282 289 295 300 302 303 304 305 306 310 314 315 314 311 311 311
226 228 228 232 234 237 239 240 242 245 247 247 250 254 260 265 269 273 271 270 270 271 275 279 281 281 281 283 283 284 281 283 284 286 281 279 282 287 292 296 299 300 302 302 304 306 309 311 314 313 306 309 313 317
221 225 226 231 233 236 239 243 241 244 245 250 254 254 256 262 261 259 258 263 268 274 278 279 281 282 281 279 278 280 279 280 282 280 282 286 289 293 296 298 299 300 301 302 304 306 308 311 311 302 303 307 312 317
208 203 200 211 215 205 193 189 191 203 221 234 235 241 243 246 255 265 270 273 274 276 280 280 278 276 272 271 273 275 278 278 280 283 287 291 293 294 295 296 297 298 300 301 304 306 307 308 301 289 299 306 310 318
196 191 193 188 192 197 190 197 198 205 216 221 229 242 251 258 264 266 269 275 280 280 275 270 263 265 272 276 277 276 279 284 288 290 292 292 293 293 294 295 297 298 299 301 301 303 303 299 283 277 290 300 306 320
187 198 199 195 198 211 203 212 222 227 235 241 246 253 257 263 270 274 276 274 267 260 256 261 268 273 274 277 281 286 288 289 290 291 291 292 292 292 293 294 295 296 298 298 299 299 294 282 264 267 285 305 306 319
190 192 198 202 206 215 222 227 230 236 240 244 250 257 263 265 265 262 255 247 248 256 263 266 270 277 284 287 287 288 290 290 289 289 290 291 291 292 293 294 295 295 296 295 292 285 285 263 253 261 283 298 302 315
199 203 208 212 216 220 225 230 233 239 242 247 247 246 246 240 234 231 237 248 251 256 271 278 282 286 288 290 292 293 292 292 291 291 291 292 292 293 294 295 295 294 291 286 278 276 272 249 249 259 280 291 299 304
194 200 204 207 211 213 216 217 219 220 216 211 209 205 206 217 230 235 242 257 269 276 282 289 293 295 296 295 294 292 291 291 291 292 293 293 295 296 296 294 291 286 280 274 277 273 248 246 248 257 274 285 293 295
199 197 192 189 191 186 179 176 175 176 176 182 191 204 215 224 238 251 262 273 286 296 300 300 298 296 293 291 289 289 290 291 292 293 294 296 297 295 292 288 281 274 269 277 271 255 249 245 248 257 265 269 277 277
189 185 176 172 169 170 170 170 172 177 185 195 205 216 232 248 263 277 287 294 298 298 297 297 296 295 293 291 290 290 291 292 293 294 296 296 296 292 285 277 270 266 265 268 265 258 250 247 251 259 261 259 258 252
169 167 166 167 167 168 174 179 183 189 197 211 232 255 269 281 288 291 294 296 299 301 300 298 296 294 292 291 292 292 291 291 292 292 292 294 294 288 278 274 272 269 268 264 261 255 252 254 254 256 258 254 248 247
170 175 179 178 180 184 187 186 186 204 235 258 275 284 289 293 297 301 304 305 304 303 300 298 295 295 295 294 292 289 287 287 285 283 287 288 285 280 279 281 280 274 266 262 258 256 254 255 256 255 254 250 243 245
193 191 189 191 194 197 203 211 230 258 274 286 294 298 302 306 309 310 309 308 305 303 302 302 303 302 300 296 291 284 278 277 276 277 281 276 273 273 282 285 282 276 270 265 260 258 257 255 254 253 252 251 249 244
205 205 205 209 215 223 236 252 269 284 292 298 303 308 310 312 313 311 309 305 301 300 303 313 321 324 320 312 301 287 273 265 265 268 265 259 259 266 277 281 283 279 275 270 267 265 261 258 254 254 253 254 252 248
222 226 230 235 244 254 270 281 292 300 303 306 310 312 314 314 312 309 303 295 284 293 302 308 313 326 336 332 320 305 281 264 260 259 253 250 252 256 264 269 273 277 277 275 273 271 269 265 260 255 252 251 253 254
247 254 262 277 282 285 292 300 304 307 310 313 314 314 313 310 307 300 289 267 272 286 301 313 325 327 330 340 338 324 305 282 269 262 254 248 247 250 254 260 265 269 273 274 274 273 272 271 268 265 262 260 258 259
271 277 288 292 299 302 303 305 307 309 310 312 312 311 306 300 293 283 261 246 260 277 323 333 333 329 333 333 335 337 326 307 289 275 265 254 249 250 252 255 261 265 270 274 274 274 273 271 269 269 269 268 267 266
293 294 298 301 303 303 303 304 306 308 310 310 307 301 296 289 281 268 243 239 240 253 302 326 330 334 338 337 334 329 327 321 307 291 277 267 260 255 254 255 257 261 264 267 271 274 273 271 270 269 268 268 268 268
293 294 296 297 297 298 298 301 306 308 306 302 297 293 289 283 272 263 243 238 242 244 263 308 331 342 347 347 344 340 333 321 310 302 291 279 270 264 262 261 259 258 259 262 264 266 268 270 272 272 272 272 272 272
281 284 287 290 293 296 299 303 304 302 302 300 295 291 284 274 269 255 241 240 244 242 244 281 315 331 338 347 351 349 341 333 324 312 298 290 283 276 271 267 264 263 262 261 262 263 264 264 265 266 267 269 271 273